Notices

What's New in latest Release from April 7th, 2021:

- Updated Glossary, including Speed of Maximum Gust, and Total Hourly Precipitation

- Updated national and regional climate services offices contacts and prices information

- Addition of station inventory lists for 1981-2010, 1971-2000, and 1961-1990 Normals.

If you haven't already, please take our survey and provide feedback about our website: https://eccc.sondage-survey.ca/f/LanguageSelection.aspx?s=442ca660-fcf1-47c0-95a9-59707d6fd709

Hourly Data Report for October 26, 2019

EUREKA CLIMATE
NUNAVUT
Current Station Operator: ECCC - MSC

79°59'21.000" N
85°56'02.000" W
10.00 m
2401199
71613
NEK

Download Data

Hourly Data (October 2019)
Hourly Data Report for October 26, 2019
TIME
LST
Temp Definition
°C
Dew Point Definition
°C
Rel Hum Definition
%
Precip. Amount Definition
mm

Wind Dir Definition
10's deg

Wind Spd Definition
km/h
Visibility Definition
km
Stn Press Definition
kPa
Hmdx Definition


Wind Chill Definition


Weather Definition


00:00 -9.8 -10.9 92 0.0 14 24   100.28   -18 LegendNANA
01:00 -10.2 -11.2 92 0.0 16 32   100.35   -20 LegendNANA
02:00 -10.5 -11.4 93 0.0 16 35   100.41   -21 LegendNANA
03:00 -10.5 -11.4 93 0.0 16 32   100.50   -20 LegendNANA
04:00 -10.8 -12.0 91 0.0 17 32   100.60   -21 LegendNANA
05:00 -10.9 -12.1 91 0.0 17 33   100.68   -21 LegendNANA
06:00 -10.9 -11.9 92 0.0 18 29   100.76   -21 LegendNANA
07:00 -10.7 -11.9 91 0.0 16 28   100.86   -20 LegendNANA
08:00 -10.6 -11.6 92 0.0 17 26   100.91   -20 LegendNANA
09:00 -11.0 -12.3 90 0.0 18 11   101.00   -17 LegendNANA
10:00 -10.6 -11.8 91 0.0 17 22   101.09   -19 LegendNANA
11:00 -11.2 -12.1 93 0.2 17 24   101.18   -20 LegendNANA
12:00 -11.5 -12.5 92 0.0 17 22   101.26   -20 LegendNANA
13:00 -12.4 -13.5 92 0.0 16 9   101.37   -18 LegendNANA
14:00 -12.6 -13.9 90 0.0 12 17   101.43   -20 LegendNANA
15:00 -12.7 -13.9 90 0.0 12 15   101.50   -20 LegendNANA
16:00 -13.3 -14.6 89 0.0 14 14   101.56   -21 LegendNANA
17:00 -13.0 -14.4 90 0.0 11 16   101.62   -21 LegendNANA
18:00 -12.9 -14.4 88 0.0 13 13   101.67   -20 LegendNANA
19:00 -12.8 -14.4 88 0.0 13 14   101.72   -20 LegendNANA
20:00 -14.5 -16.1 88 0.0 13 11   101.76   -21 LegendNANA
21:00 -15.8 -17.2 89 0.0 6 4   101.80   -19 LegendNANA
22:00 -16.0 -17.4 89 0.0 10 5   101.86   -20 LegendNANA
23:00 -16.0 -17.1 91 0.0 31 1   101.91   -17 LegendNANA

Notes on Data Quality.

Legend

  • E = Estimated
  • M = Missing
  • NA = Not Available*
  • [empty] = Indicates an unobserved value
Date modified: